Regional Weather Roundup
Issued by NWS Jackson, KY

Home | Current Version | Previous Version | Text Only | Print | Product List | Glossary On
Versions: 1 2 3 4 5 6 7 8 9 10 11 12 13 14 15 16 17 18 19 20 21 22 23 24 25 26 27 28 29 30 31 32 33 34 35 36 37 38 39 40 41 42 43 44 45 46 47 48 49 50
000
ASUS43 KJKL 130410
RWRJKL

EAST KENTUCKY HOURLY WEATHER ROUNDUP
NATIONAL WEATHER SERVICE JACKSON KY
1200 AM EDT THU AUG 13 2020

NOTE: "FAIR" INDICATES FEW OR NO CLOUDS BELOW 12,000 FEET WITH
NO SIGNIFICANT WEATHER AND/OR OBSTRUCTIONS TO VISIBILITY.

* THESE REPORTS ARE NOT UNDER NWS QUALITY CONTROL AND MAY NOT
  REPORT WEATHER SUCH AS PRECIPITATION AND FOG.

KYZ079-080-083-085-087-088-110-112-115-119-120-130500
...EASTERN KENTUCKY...

CITY           SKY/WX    TMP DP  RH WIND       PRES   REMARKS
JACKSON        MOCLDY    75  71  87 CALM      30.07S
LONDON         PTCLDY    76  72  87 CALM      30.06S
SOMERSET*      PTCLDY    72  68  88 CALM      30.06R
MONTICELLO*    CLEAR     71  71 100 MISG      30.07S FOG
WILLIAMSBURG*  FAIR      73  73 100 CALM      30.06R
MIDDLESBORO*   PTCLDY    73  73  97 CALM      30.08R
HARLAN APT*    PTCLDY    70  69  96 E3        30.09R
PIKE CO APT*   FAIR      72  72 100 SE3       30.08F
BIG SANDY APT* MOCLDY    73  73 100 SE3       30.07S
MOREHEAD APT*  PTCLDY    73  70  88 CALM      30.06F
ASHLAND*       PTCLDY    76  74  93 CALM      30.03F
$$

KYZ035-036-041-042-044-050-067-078-099-130500
...CENTRAL KENTUCKY...

CITY           SKY/WX    TMP DP  RH WIND       PRES   REMARKS
MT STERLING*   PTCLDY    72  70  94 CALM      30.07S
FLEMING/MASON* MOCLDY    74  72  93 E3        30.06F
DANVILLE*      PTCLDY    73  70  88 CALM      30.07S
RICHMOND*      FAIR      73  70  88 CALM      30.06R
LEXINGTON      PTCLDY    76  70  82 CALM      30.06S
FRANKFORT      PTCLDY    76  72  87 N3        30.04F
LOUISVILLE     PTCLDY    81  72  74 N3        30.03F
LEBANON*       FAIR      75  75 100 CALM      30.05S
GLASGOW*       FOG       73  73 100 CALM      30.04R VSB<1/4
BOWLING GREEN  MOCLDY    76  74  93 CALM      30.03S
$$

KYZ091>093-OHZ055-061-077-WVZ005-015-034-035-042-130500
...SOUTHERN OHIO/WEST VIRGINIA...

CITY           SKY/WX    TMP DP  RH WIND       PRES   REMARKS
COVINGTON      MOCLDY    77  66  68 N7        30.06S
COLUMBUS       MOCLDY    73  63  70 NE5       30.07S
DAYTON         MOCLDY    71  64  78 NE6       30.10S
WILMINGTON     PTCLDY    69  65  86 NE6       30.07F
HUNTINGTON     MOCLDY    76  71  85 SE6       30.04S
CHARLESTON     MOCLDY    72  69  90 N3        30.05F
PINEVILLE*     MOCLDY    71  70  98 MISG      30.14F
BECKLEY        MOCLDY    67  67 100 N3        30.14S
BLUEFIELD      MOCLDY    65  65 100 CALM      30.15F FOG
LOGAN CO APT*  FAIR      70  70 100 CALM      30.09S
$$

VAZ002-007-008-TNZ017-027-036-066-071-130500
...SOUTHWEST VIRGINIA/EAST TENNESSEE...

CITY           SKY/WX    TMP DP  RH WIND       PRES   REMARKS
WISE*          PTCLDY    68  68 100 CALM      30.16S
JONESVILLE*    FAIR      70  70 100 CALM      30.10R FOG
ABINGDON*      PTCLDY    70  67  90 NE3       30.10F
BRISTOL        MOCLDY    72  68  87 CALM      30.08S
MORRISTOWN*    CLEAR     73  72  94 CALM      30.05S
SEVIERVILLE*   CLEAR     75  70  83 CALM      30.04R
KNOXVILLE      MOCLDY    76  70  82 NE6       30.03R
LAFOLLETTE*      N/A     75  72  88 CALM      30.09R
OAK RIDGE      PTCLDY    78  72  81 CALM      30.05R
CROSSVILLE     PTCLDY    69  67  93 CALM      30.10R
NASHVILLE      PTCLDY    75  71  87 CALM      30.02F
$$

...KEY TO REMARKS...
VSB - VISIBILITY IN MILES
WCI - WIND CHILL INDEX
HX  - HEAT INDEX

$$




USA.gov is the U.S. government's official web portal to all federal, state and local government web resources and services.